ALSAT 1 1 27559U 02054A 13141.14386106 .00000551 00000-0 98599-4 0 8015 2 27559 97.7673 341.3440 0024574 93.6606 54.4878 14.70300208560338 NIGERIASAT 1 1 27941U 03042C 13141.51640089 .00001158 00000-0 16003-3 0 8734 2 27941 97.7928 346.4234 0052751 30.2736 330.1521 14.79019077516354 UK-DMC 1 27942U 03042D 13141.51479078 .00000683 00000-0 10158-3 0 8910 2 27942 97.7771 348.1668 0064241 228.2440 163.7692 14.76747528516523 BILSAT 1 1 27943U 03042E 13141.50030260 .00000453 00000-0 96053-4 0 7100 2 27943 97.8004 328.1917 0010135 280.5021 79.5053 14.63410041515255 BEIJING 1 1 28890U 05043A 13141.49842546 .00000369 00000-0 85004-4 0 5895 2 28890 97.8573 355.9833 0015917 157.7017 202.4899 14.60479655403227 HJ-1A 1 33320U 08041A 13141.44496617 .00001521 00000-0 23321-3 0 2003 2 33320 97.8202 205.4174 0028219 133.5436 226.8120 14.74784669253334 HJ-1B 1 33321U 08041B 13141.41374817 .00001321 00000-0 20254-3 0 2581 2 33321 97.8228 205.7241 0037498 150.3477 209.9872 14.74787333253317 YAOGAN 4 1 33446U 08061A 13141.47677077 .00001176 00000-0 18264-3 0 9573 2 33446 97.7400 196.9907 0018785 88.5150 271.8213 14.74721581240602 YAOGAN 5 1 33456U 08064A 13141.52054398 .00026056 00000-0 54734-3 0 9642 2 33456 97.2152 215.3836 0006056 319.5941 229.7811 15.45307447247548 DEIMOS-1 1 35681U 09041A 13141.43524474 .00000632 00000-0 11364-3 0 2251 2 35681 98.0048 40.6592 0001936 85.7370 274.4050 14.69943662204423 UK-DMC 2 1 35683U 09041C 13141.54021856 .00000572 00000-0 10349-3 0 2469 2 35683 98.0052 39.8546 0001364 105.4108 254.7259 14.69985987204364 RISAT 1 1 38248U 12017A 13141.57380010 .00002681 00000-0 17384-3 0 2121 2 38248 97.5941 148.6826 0002143 101.1166 45.5651 15.08958265 58900